When you browse on this site, cookies collect data to enhance your experience and personalize the content and advertising you see.
Visit our Privacy Policy to learn more. By continuing to use the site, you agree to this use of cookies and data.
  • în România
  • Lista ţărilor
  • Pe 7 zile
  • Temperatura apei
  • Hartă satelitară
  • Meteo pe hartă
  • Widget-uri
  • user-avatar
    Intrare

    Meteo pe oră la Arnesano

    Astăzi, 17 Iulie, Miercuri

    Timp Temperatura Precipitaţii Vânt Presiune Umiditate
    00:00 +22°C° 0 mm 5 m/s 753 mmHg 72%
    01:00 +22°C° 0 mm 6 m/s 753 mmHg 71%
    02:00 +22°C° 0 mm 6 m/s 753 mmHg 70%
    03:00 +22°C° 0 mm 6 m/s 753 mmHg 69%
    04:00 +22°C° 0 mm 6 m/s 753 mmHg 67%
    05:00 +23°C° 0 mm 7 m/s 753 mmHg 64%
    06:00 +24°C° 0 mm 7 m/s 753 mmHg 60%
    07:00 +26°C° 0 mm 8 m/s 754 mmHg 57%
    08:00 +27°C° 0 mm 7 m/s 754 mmHg 52%
    09:00 +28°C° 0 mm 7 m/s 754 mmHg 47%
    10:00 +29°C° 0 mm 7 m/s 755 mmHg 43%
    11:00 +29°C° 0 mm 7 m/s 755 mmHg 42%
    12:00 +29°C° 0 mm 7 m/s 755 mmHg 40%
    13:00 +29°C° 0 mm 7 m/s 755 mmHg 39%
    14:00 +29°C° 0 mm 7 m/s 755 mmHg 39%
    15:00 +29°C° 0 mm 7 m/s 755 mmHg 38%
    16:00 +29°C° 0 mm 6 m/s 755 mmHg 37%
    17:00 +28°C° 0 mm 6 m/s 755 mmHg 40%
    18:00 +27°C° 0 mm 5 m/s 754 mmHg 44%
    19:00 +25°C° 0 mm 4 m/s 754 mmHg 47%
    20:00 +25°C° 0 mm 4 m/s 754 mmHg 54%
    21:00 +24°C° 0 mm 3 m/s 755 mmHg 60%
    22:00 +22°C° 0 mm 3 m/s 755 mmHg 67%
    23:00 +22°C° 0 mm 3 m/s 755 mmHg 68%

    Mâine, 18 Iulie, Joi

    Timp Temperatura Precipitaţii Vânt Presiune Umiditate
    00:00 +22°C° 0 mm 3 m/s 755 mmHg 69%
    01:00 +21°C° 0 mm 3 m/s 755 mmHg 70%
    02:00 +21°C° 0 mm 3 m/s 755 mmHg 69%
    03:00 +21°C° 0 mm 3 m/s 755 mmHg 68%
    04:00 +20°C° 0 mm 3 m/s 754 mmHg 66%
    05:00 +23°C° 0 mm 2 m/s 755 mmHg 60%
    06:00 +24°C° 0 mm 2 m/s 755 mmHg 54%
    07:00 +26°C° 0 mm 2 m/s 755 mmHg 47%
    08:00 +27°C° 0 mm 2 m/s 755 mmHg 43%
    09:00 +28°C° 0 mm 2 m/s 755 mmHg 39%
    10:00 +30°C° 0 mm 2 m/s 756 mmHg 35%
    11:00 +30°C° 0 mm 2 m/s 756 mmHg 35%
    12:00 +30°C° 0 mm 3 m/s 756 mmHg 35%
    13:00 +31°C° 0 mm 3 m/s 756 mmHg 35%
    14:00 +31°C° 0 mm 3 m/s 756 mmHg 38%
    15:00 +30°C° 0 mm 3 m/s 756 mmHg 40%
    16:00 +30°C° 0 mm 3 m/s 756 mmHg 42%
    17:00 +29°C° 0 mm 3 m/s 755 mmHg 48%
    18:00 +28°C° 0 mm 3 m/s 755 mmHg 54%
    19:00 +26°C° 0 mm 2 m/s 755 mmHg 60%
    20:00 +26°C° 0 mm 2 m/s 756 mmHg 63%
    21:00 +25°C° 0 mm 2 m/s 756 mmHg 66%
    22:00 +25°C° 0 mm 2 m/s 757 mmHg 69%
    23:00 +24°C° 0 mm 2 m/s 757 mmHg 71%

    Poimâine, 19 Iulie, Vineri

    Timp Temperatura Precipitaţii Vânt Presiune Umiditate
    00:00 +24°C° 0 mm 2 m/s 757 mmHg 73%
    01:00 +24°C° 0 mm 1 m/s 756 mmHg 74%
    02:00 +23°C° 0 mm 1 m/s 756 mmHg 74%
    03:00 +23°C° 0 mm 1 m/s 756 mmHg 74%
    04:00 +23°C° 0 mm 1 m/s 756 mmHg 74%
    05:00 +24°C° 0 mm 1 m/s 757 mmHg 67%
    06:00 +25°C° 0 mm 1 m/s 757 mmHg 60%
    07:00 +27°C° 0 mm 1 m/s 757 mmHg 53%
    08:00 +28°C° 0 mm 1 m/s 757 mmHg 47%
    09:00 +29°C° 0 mm 2 m/s 758 mmHg 41%
    10:00 +31°C° 0 mm 2 m/s 758 mmHg 36%
    11:00 +31°C° 0 mm 2 m/s 758 mmHg 36%
    12:00 +31°C° 0 mm 3 m/s 758 mmHg 36%
    13:00 +33°C° 0 mm 3 m/s 758 mmHg 36%
    14:00 +31°C° 0 mm 3 m/s 758 mmHg 37%
    15:00 +31°C° 0 mm 3 m/s 757 mmHg 39%
    16:00 +31°C° 0 mm 3 m/s 757 mmHg 40%
    17:00 +30°C° 0 mm 3 m/s 757 mmHg 45%
    18:00 +28°C° 0 mm 2 m/s 758 mmHg 51%
    19:00 +27°C° 0 mm 1 m/s 758 mmHg 56%
    20:00 +26°C° 0 mm 1 m/s 758 mmHg 59%
    21:00 +26°C° 0 mm 1 m/s 758 mmHg 62%
    22:00 +25°C° 0 mm 1 m/s 759 mmHg 65%
    23:00 +24°C° 0 mm 1 m/s 758 mmHg 67%

    20 Iulie, Sâmbătă

    Timp Temperatura Precipitaţii Vânt Presiune Umiditate
    00:00 +24°C° 0 mm 1 m/s 758 mmHg 68%
    01:00 +24°C° 0 mm 1 m/s 758 mmHg 69%
    02:00 +24°C° 0 mm 1 m/s 758 mmHg 67%
    03:00 +24°C° 0 mm 1 m/s 758 mmHg 66%
    04:00 +23°C° 0 mm 1 m/s 758 mmHg 65%
    05:00 +25°C° 0 mm 1 m/s 758 mmHg 60%
    06:00 +26°C° 0 mm 1 m/s 759 mmHg 54%
    07:00 +28°C° 0 mm 2 m/s 759 mmHg 48%
    08:00 +29°C° 0 mm 2 m/s 759 mmHg 45%
    09:00 +30°C° 0 mm 2 m/s 759 mmHg 42%
    10:00 +31°C° 0 mm 2 m/s 760 mmHg 38%
    11:00 +32°C° 0 mm 2 m/s 760 mmHg 37%
    12:00 +33°C° 0 mm 3 m/s 760 mmHg 36%
    13:00 +34°C° 0 mm 3 m/s 760 mmHg 36%
    14:00 +33°C° 0 mm 3 m/s 759 mmHg 36%
    15:00 +33°C° 0 mm 3 m/s 759 mmHg 37%
    16:00 +33°C° 0 mm 3 m/s 759 mmHg 38%
    17:00 +30°C° 0 mm 2 m/s 759 mmHg 43%
    18:00 +29°C° 0 mm 2 m/s 759 mmHg 48%
    19:00 +27°C° 0 mm 1 m/s 759 mmHg 53%
    20:00 +27°C° 0 mm 1 m/s 759 mmHg 55%
    21:00 +26°C° 0 mm 1 m/s 760 mmHg 56%
    22:00 +25°C° 0 mm 1 m/s 760 mmHg 58%
    23:00 +25°C° 0 mm 1 m/s 760 mmHg 58%

    21 Iulie, Duminică

    Timp Temperatura Precipitaţii Vânt Presiune Umiditate
    00:00 +25°C° 0 mm 1 m/s 760 mmHg 59%
    01:00 +24°C° 0 mm 1 m/s 759 mmHg 59%
    02:00 +24°C° 0 mm 1 m/s 759 mmHg 58%
    03:00 +24°C° 0 mm 2 m/s 759 mmHg 57%
    04:00 +24°C° 0 mm 2 m/s 759 mmHg 56%
    05:00 +25°C° 0 mm 2 m/s 759 mmHg 52%
    06:00 +27°C° 0 mm 2 m/s 759 mmHg 48%
    07:00 +28°C° 0 mm 2 m/s 760 mmHg 44%
    08:00 +29°C° 0 mm 2 m/s 760 mmHg 39%
    09:00 +31°C° 0 mm 3 m/s 760 mmHg 35%
    10:00 +33°C° 0 mm 3 m/s 760 mmHg 30%
    11:00 +34°C° 0 mm 4 m/s 760 mmHg 28%
    12:00 +34°C° 0 mm 4 m/s 760 mmHg 25%
    13:00 +35°C° 0 mm 4 m/s 760 mmHg 23%
    14:00 +34°C° 0 mm 4 m/s 760 mmHg 25%
    15:00 +34°C° 0 mm 4 m/s 759 mmHg 27%
    16:00 +34°C° 0 mm 4 m/s 759 mmHg 29%
    17:00 +32°C° 0 mm 4 m/s 759 mmHg 35%
    18:00 +30°C° 0 mm 4 m/s 759 mmHg 42%
    19:00 +28°C° 0 mm 4 m/s 759 mmHg 48%
    20:00 +27°C° 0 mm 3 m/s 759 mmHg 51%
    21:00 +27°C° 0 mm 3 m/s 759 mmHg 55%
    22:00 +26°C° 0 mm 3 m/s 760 mmHg 58%
    23:00 +26°C° 0 mm 3 m/s 759 mmHg 59%

    22 Iulie, Luni

    Timp Temperatura Precipitaţii Vânt Presiune Umiditate
    00:00 +25°C° 0 mm 3 m/s 759 mmHg 60%
    01:00 +25°C° 0 mm 3 m/s 759 mmHg 60%
    02:00 +25°C° 0 mm 3 m/s 759 mmHg 59%
    03:00 +25°C° 0 mm 3 m/s 758 mmHg 58%
    04:00 +25°C° 0 mm 4 m/s 758 mmHg 57%
    05:00 +26°C° 0 mm 4 m/s 758 mmHg 55%
    06:00 +27°C° 0 mm 5 m/s 759 mmHg 53%
    07:00 +29°C° 0 mm 5 m/s 759 mmHg 50%
    08:00 +30°C° 0 mm 5 m/s 759 mmHg 46%
    09:00 +32°C° 0 mm 6 m/s 759 mmHg 43%
    10:00 +34°C° 0 mm 6 m/s 759 mmHg 39%
    11:00 +34°C° 0 mm 6 m/s 759 mmHg 37%
    12:00 +35°C° 0 mm 6 m/s 758 mmHg 36%
    13:00 +36°C° 0 mm 6 m/s 758 mmHg 34%
    14:00 +35°C° 0 mm 6 m/s 758 mmHg 35%
    15:00 +35°C° 0 mm 6 m/s 758 mmHg 36%
    16:00 +34°C° 0 mm 6 m/s 757 mmHg 36%
    17:00 +33°C° 0 mm 6 m/s 757 mmHg 41%
    18:00 +30°C° 0 mm 5 m/s 757 mmHg 45%
    19:00 +29°C° 0 mm 4 m/s 757 mmHg 50%
    20:00 +28°C° 0 mm 4 m/s 757 mmHg 54%
    21:00 +27°C° 0 mm 4 m/s 757 mmHg 59%
    22:00 +26°C° 0 mm 3 m/s 757 mmHg 64%
    23:00 +26°C° 0 mm 4 m/s 757 mmHg 64%
    Arată mai mult